Regional Weather Roundup
Issued by NWS

Home | Current Version | Previous Version | Text Only | Print | Product List | Glossary Off
Versions: 1 2 3 4 5 6 7 8 9 10 11 12 13 14 15 16 17 18 19 20 21 22 23 24 25 26 27 28 29 30 31 32 33 34 35 36 37 38 39 40 41 42 43 44 45 46 47 48 49 50

000
ASUS43 KBIS 210602
RWRND

NORTH DAKOTA REGIONAL WEATHER ROUNDUP
NATIONAL WEATHER SERVICE BISMARCK ND
100 AM CDT SAT OCT 21 2017

NOTE: "FAIR" INDICATES FEW OR NO CLOUDS BELOW 12,000 FEET WITH NO
SIGNIFICANT WEATHER AND/OR OBSTRUCTIONS TO VISIBILITY.


NDZ001>003-009>011-017-210700-
NORTHWEST NORTH DAKOTA

CITY           SKY/WX    TMP DP  RH WIND       PRES   REMARKS
WILLISTON        N/A    N/A N/A N/A MISG      29.29R
MINOT          CLEAR     65  50  58 S22G29    29.16R
MINOT AFB      CLEAR     61  49  65 SW17      29.14S
$$

NDZ018>021-031>035-040>046-210700-
SOUTHWEST NORTH DAKOTA

CITY           SKY/WX    TMP DP  RH WIND       PRES   REMARKS
BISMARCK       CLEAR     63  53  70 S12       29.28R
6HR MIN TEMP:  62; 6HR MAX TEMP:  71;

DICKINSON      PTCLDY    57  33  40 NW26G39   29.32R
GARRISON         N/A     61  48  62 SW17      29.22R
6HR MIN TEMP:  59; 6HR MAX TEMP:  66;

HETTINGER ARPT PTCLDY    54  40  59 NW16      29.40R
$$

NDZ004>008-012>016-024-026-027-054-210700-
NORTHEAST NORTH DAKOTA

CITY           SKY/WX    TMP DP  RH WIND       PRES   REMARKS
GRAND FORKS    CLOUDY    68  57  68 S18G31    29.36S
GRND FRKS AFB  CLOUDY    66  55  66 S20G28    29.35S
DEVILS LAKE    CLEAR     61  53  75 S14G22    29.28F
$$

NDZ022-023-025-028>030-036>039-047>053-210700-
SOUTHEAST NORTH DAKOTA

CITY           SKY/WX    TMP DP  RH WIND       PRES   REMARKS
FARGO          CLOUDY    67  57  70 S24G37    29.40F
6HR MIN TEMP:  67; 6HR MAX TEMP:  72;

JAMESTOWN      CLEAR     63  55  75 S15       29.32F
$$




USA.gov is the U.S. government's official web portal to all federal, state and local government web resources and services.